This is the latest recevied weather packets stored in our database for station/object NEWPRT. If no packets are shown the sender has not sent any weather packets the latest 10 day(s).
| Time | Temp. | Humidity | Pressure | Rain* | Wind** | Luminosity | Snow |
|---|---|---|---|---|---|---|---|
| 1778052669 | - | 67% | 1018.9 hPa | 0 mm | - | - | - |
| 1778052347 | - | 67% | 1019.1 hPa | 0 mm | - | - | - |
| 1778052023 | - | 67% | 1018.8 hPa | 0 mm | - | - | - |
| 1778051700 | - | 67% | 1018.7 hPa | 0 mm | - | - | - |
| 1778051379 | - | 67% | 1018.7 hPa | 0 mm | - | - | - |
| 1778051055 | - | 67% | 1018.7 hPa | 0 mm | - | - | - |
| 1778050731 | - | 67% | 1018.7 hPa | 0 mm | - | - | - |
| 1778050408 | - | 67% | 1018.7 hPa | 0 mm | - | - | - |
| 1778050085 | - | 68% | 1018.6 hPa | 0 mm | - | - | - |
| 1778049762 | - | 66% | 1018.3 hPa | 0 mm | - | - | - |
| 1778049439 | - | 66% | 1018.4 hPa | 0 mm | - | - | - |
| 1778049116 | - | 66% | 1018.3 hPa | 0 mm | - | - | - |
| 1778048793 | - | 66% | 1018.2 hPa | 0 mm | - | - | - |
| 1778048524 | - | 69% | 1018.4 hPa | 0 mm | - | - | - |
| 1778048470 | - | 69% | 1018.4 hPa | 0 mm | - | - | - |
| 1778048148 | - | 68% | 1018.6 hPa | 0 mm | - | - | - |
| 1778047824 | - | 68% | 1018.6 hPa | 0 mm | - | - | - |
| 1778047501 | - | 68% | 1018.6 hPa | 0 mm | - | - | - |
| 1778047178 | - | 68% | 1018.4 hPa | 0 mm | - | - | - |
| 1778046856 | - | 68% | 1018.6 hPa | 0 mm | - | - | - |
| 1778046532 | - | 68% | 1018.6 hPa | 0 mm | - | - | - |
| 1778046209 | - | 66% | 1018.3 hPa | 0 mm | - | - | - |
| 1778045886 | - | 68% | 1018.5 hPa | 0 mm | - | - | - |
| 1778045563 | - | 68% | 1018.4 hPa | 0 mm | - | - | - |
| 1778045241 | - | 67% | 1018.5 hPa | 0 mm | - | - | - |
* Rain latest hour (hover to see other rain measurements)
** Current wind speed in m/s (hover to see current wind gust speed)